Weather in Rybalovo

Russia / Tomsk District     56°29′57″N   84°30′50″E
temp.,
°C
wind,
m/s
gust,
m/s
humid.,
%
clouds,
%
prec.,
mm/h
press.,
hPa
HPBL,
m
17 may, mon
mon1701:00+9ne2494100 0.0 1014170
04:00+9nne2392100 0.0 1014127
07:00+9n228695 0.0 1015169
10:00+13n236798 0.0 1015680
13:00+14nnw3365100 0.0 1015810
16:00+17nnw245783 0.0 10151297
19:00+16nnw236050 0.1 1014902
22:00+13se2273100 0.0 101363
18 may, tue
tue1801:00+12sse2680100 0.0 1011160
04:00+11sse2595100 0.0 1008103
07:00+13s3896100 1.6 1004280
10:00+17w6107769 0.4 10011000
13:00+18wnw7127543 2.1 10001307
16:00+16nnw5876100 0.8 10031186
19:00+11n3689100 0.9 1005591
22:00+8nne4689100 0.0 1007529
19 may, wed
wed1901:00+7ne3890100 0.1 1008522
04:00+7nne51092100 0.6 1008612
07:00+7n4890100 1.4 1009542
10:00+7nne6956100 0.0 1011832
13:00+10n793410 0.0 10111879
16:00+11n79295 0.0 10122197
19:00+10n59335 0.0 10132482
22:00+5nnw255296 0.0 101491
20 may, thu
thu2001:00+3n2860100 0.0 1016249
04:00+1nnw386289 0.0 1016259
07:00+2nnw48515 0.0 1017451
10:00+6nnw583198 0.0 10172294
13:00+8nnw5727100 0.0 10162760
16:00+9nnw4626100 0.0 10152697
19:00+9n3429100 0.0 10162206
22:00+5ene1141100 0.0 101611
21 may, fri
fri2101:00+3se2345100 0.0 101652
04:00+2se3648100 0.0 1016118
07:00+4se3846100 0.0 1016238
10:00+9sse463477 0.0 10161255
13:00+13sse45259 0.0 10161759
16:00+15s34238 0.0 10162109
19:00+14ssw34295 0.0 10161599
22:00+8sse22495 0.0 101710